Location: Runa
(38.1429°N, 80.8510°W)
Time: 22:52:09
(UTC+00:00)

ISS - Pass Details

Date: 18 April 2026
Orbit: 414 x 424 km, 51.6° (Epoch: 15 May)

Event Time Altitude Azimuth Distance (km) Brightness Sun altitude
Exits shadow 09:37:52 20° 215° (SW) 1,029 -2.3 -13.0°
Maximum altitude 09:40:00 63° 138° (SE) 469 -3.5 -12.6°
Drops below altitude 10° 09:43:21 10° 56° (ENE) 1,503 0.5 -12.0°
Sets 09:45:28 0° 54° (NE) 2,373 1.9 -11.6°
